Dewpoint
62 55 50 46 34 27 24 26 28 27 27 30 30 32 39 43 35 48 56 58 61 64 67 70 73 73 72 71 71 70 69 68 68 67 67 67 66 66 64 63 63 64 65 65 65 65 65 64 64
59 50 47 37 29 21 23 26 28 28 30 35 37 36 41 46 54 58 58 58 60 64 67 68 73 72 72 71 70 70 68 68 67 66 67 68 67 66 64 62 63 64 64 64 65 65 65 65 64
58 49 38 30 25 21 21 25 26 34 35 35 34 45 45 54 57 55 58 59 61 65 65 70 73 73 72 71 71 70 68 67 66 66 66 68 68 67 64 62 64 64 64 65 65 65 65 65 65
51 45 40 29 24 22 21 27 34 32 32 37 36 39 55 59 56 57 60 59 62 63 65 72 73 73 72 72 71 69 68 66 65 66 66 67 69 67 64 63 64 64 64 64 65 64 65 66 66
53 41 31 29 26 23 28 35 37 31 32 35 40 46 54 61 61 61 59 59 61 61 68 70 73 72 72 71 70 69 68 66 67 66 66 67 69 67 65 64 64 63 63 64 64 64 64 65 66
47 39 32 27 26 27 32 37 34 33 31 36 41 48 57 63 63 60 59 59 60 62 66 69 72 72 71 69 68 67 66 66 68 67 67 67 69 67 65 64 64 64 63 63 64 64 64 63 65
47 38 32 29 26 32 33 39 34 34 31 43 46 45 59 63 66 62 60 60 60 65 66 67 68 69 69 68 67 66 67 69 69 69 68 70 68 67 66 65 64 64 64 64 64 64 63 63 62
47 42 33 30 28 32 37 39 41 38 35 49 52 45 55 63 67 67 61 60 60 64 65 67 67 66 65 64 66 66 67 68 69 69 69 68 66 66 66 66 65 64 64 65 65 64 63 63 62
48 44 37 33 35 33 39 36 41 42 40 44 47 54 58 64 67 66 65 63 60 64 66 67 66 64 63 63 64 64 65 67 66 66 66 65 62 63 64 65 65 65 64 64 65 65 63 61 60
46 43 35 35 34 36 36 37 39 38 39 41 43 50 62 64 65 64 64 64 63 64 65 66 65 64 64 62 63 61 55 62 61 60 61 60 60 62 63 64 64 65 65 64 64 65 64 61 55
45 41 40 36 38 36 40 40 42 37 38 40 41 47 60 64 64 65 64 63 63 64 64 65 65 64 64 62 63 61 60 56 55 57 57 56 56 59 59 61 62 63 63 62 63 63 61 56 56
41 43 43 45 40 40 39 38 38 41 42 42 42 47 57 62 63 63 63 63 63 64 65 64 65 65 65 63 62 60 60 60 59 59 59 58 56 56 54 53 54 56 55 56 58 56 55 55 55
42 39 42 48 42 39 39 38 41 41 43 42 42 44 55 61 62 62 63 63 62 63 64 65 63 63 65 64 62 60 59 60 60 60 60 59 58 56 55 53 51 52 51 54 55 56 54 53 52
34 36 42 44 43 39 38 39 40 40 41 41 40 41 48 57 59 61 61 62 63 62 63 64 64 65 63 63 63 62 60 60 60 61 61 60 59 59 57 57 53 51 53 55 57 57 57 57 57
35 33 38 44 44 44 40 38 38 35 41 39 39 39 42 44 52 59 60 62 63 63 63 63 63 63 64 64 64 61 60 60 61 61 61 61 61 61 59 58 58 54 56 56 56 57 58 58 58
35 33 34 36 40 43 41 34 38 36 39 40 40 38 40 42 42 43 56 59 62 63 62 63 62 62 61 62 64 62 61 61 61 61 62 62 61 61 61 61 60 60 59 59 59 59 58 58 58
35 28 31 31 38 41 41 33 35 39 38 38 39 38 38 41 41 40 40 51 60 62 62 63 63 63 62 62 62 61 61 62 61 62 62 62 63 62 62 60 60 60 61 61 60 60 60 59 59
26 25 27 26 36 38 38 37 40 40 41 39 38 38 38 40 41 40 39 38 47 60 62 64 64 63 63 62 62 62 63 63 62 62 62 62 63 63 63 62 61 61 60 60 61 60 61 60 60
19 20 25 25 34 38 37 37 38 39 40 40 39 38 37 38 40 41 39 38 35 49 59 62 63 64 63 63 63 63 62 63 63 63 63 63 63 63 63 62 62 62 62 62 61 61 60 60 61
24 21 26 30 36 37 34 33 35 36 37 37 36 36 36 37 39 41 40 38 35 35 49 55 60 62 63 63 64 64 63 63 63 64 64 64 64 64 63 63 63 63 63 62 62 62 61 61 61
25 20 29 30 35 36 31 29 32 35 37 35 34 36 36 36 37 39 40 38 37 37 38 45 51 57 60 62 63 61 59 60 61 63 63 59 57 59 60 61 62 64 64 63 63 63 62 60 61
26 24 26 27 32 26 31 17 22 31 34 34 34 35 34 36 37 37 40 38 37 38 43 43 45 47 49 50 55 57 57 57 53 52 52 49 50 51 51 52 53 55 57 60 60 60 61 61 58
24 28 28 31 30 22 28 25 19 27 31 33 32 33 35 34 35 39 40 39 38 42 46 44 44 44 45 45 44 44 43 42 43 43 45 46 49 49 50 50 50 51 52 53 55 55 55 56 56
32 30 29 28 24 21 23 21 16 19 23 25 28 30 33 34 35 36 40 39 40 46 47 46 44 44 45 45 45 45 45 44 44 46 46 47 48 50 49 48 49 50 50 51 53 54 55 55 54
30 27 23 21 23 20 23 19 19 23 25 26 26 27 29 31 33 35 37 38 40 46 47 46 44 44 45 46 45 46 46 46 46 47 46 46 46 47 47 47 47 47 47 47 49 52 53 53 55
28 24 19 14 15 15 24 20 19 24 24 27 28 28 28 28 31 33 36 38 40 45 46 45 44 44 44 45 45 45 46 45 45 45 45 44 44 44 44 44 44 44 44 45 47 50 52 54 54
29 28 25 22 21 17 20 20 22 20 23 23 22 24 27 29 29 29 32 37 39 43 44 43 43 43 43 43 43 43 43 44 43 43 43 42 42 40 40 41 42 43 43 44 45 48 49 51 51
31 30 22 27 19 12 15 14 13 18 20 21 23 24 25 25 27 31 32 34 39 43 43 42 42 42 42 42 41 41 41 41 41 41 40 40 39 39 40 40 41 41 41 42 44 46 48 48 48
30 27 28 25 24 18 9 11 17 21 22 24 27 29 29 30 31 33 35 38 40 42 43 42 42 42 41 41 40 40 39 39 39 39 39 39 39 39 39 39 39 39 40 41 42 43 44 45 45
35 28 25 23 21 22 23 18 19 21 23 26 29 30 30 34 35 36 37 40 41 42 42 41 41 41 40 40 39 39 39 39 39 39 39 39 39 39 38 38 38 38 39 39 40 41 42 42 42
Wind_Speed
13 9 4 5 7 10 19 12 3 9 7 2 3 6 4 9 12 5 19 13 23 22 23 21 17 16 16 16 16 14 12 11 11 11 11 14 14 14 14 14 13 15 15 15 16 16 15 14 13
11 6 6 7 10 21 20 13 13 12 6 1 2 5 5 9 12 13 16 18 23 22 22 21 17 17 18 17 16 14 13 11 11 10 10 12 14 14 13 13 13 14 14 14 15 14 13 12 11
11 9 10 7 15 26 22 12 11 6 3 2 2 4 3 7 7 19 17 22 24 21 21 22 19 19 18 16 17 15 13 11 10 10 10 9 14 15 14 14 13 13 13 13 13 12 12 11 12
7 8 11 16 21 26 12 14 5 7 5 2 7 6 6 4 9 9 18 24 22 22 21 23 19 19 17 14 16 15 12 11 10 10 10 7 14 15 15 14 14 13 13 12 11 11 12 12 12
11 12 17 20 22 20 4 9 3 3 9 12 1 4 5 8 3 13 19 22 21 20 23 20 20 18 17 15 14 13 10 10 11 10 9 8 17 15 15 13 13 12 12 11 10 10 10 11 10
13 16 20 26 25 11 9 4 5 2 4 11 5 4 6 6 5 16 20 20 20 19 19 19 19 17 15 14 12 11 11 11 10 12 10 8 16 14 15 12 11 10 10 9 8 8 8 9 9
18 21 26 28 24 12 11 5 6 2 5 5 4 9 6 8 4 8 17 17 18 21 19 18 17 16 14 13 11 11 11 8 7 11 10 12 15 14 14 10 9 8 8 7 7 6 6 6 7
13 18 26 25 23 12 8 5 4 4 6 3 2 10 6 10 3 3 7 18 17 19 19 19 18 17 15 12 10 11 11 9 14 12 12 14 12 13 11 9 8 7 6 6 5 4 4 3 3
6 8 26 16 23 14 8 8 4 2 2 4 4 5 4 9 8 4 9 9 14 16 13 16 16 17 13 14 11 10 10 11 12 14 15 14 10 9 9 10 8 5 5 4 4 3 3 3 4
11 7 27 26 18 15 13 5 7 3 6 5 5 5 6 13 13 11 10 14 10 15 14 13 14 16 13 12 13 11 11 11 12 11 12 10 6 6 6 9 6 4 4 4 4 4 5 7 6
13 19 19 19 7 10 14 11 2 1 2 6 5 4 5 12 11 12 16 14 17 15 16 14 14 12 10 10 11 11 10 9 8 8 9 6 5 6 6 7 7 8 9 8 9 9 10 5 3
13 27 17 12 8 12 15 10 7 6 8 4 5 5 7 9 9 7 9 13 15 14 9 15 14 13 14 8 12 10 9 8 7 7 7 6 6 5 5 4 4 4 6 6 5 6 4 5 6
29 20 23 26 8 14 13 14 11 4 2 1 4 7 8 7 8 6 3 7 12 13 12 12 14 13 13 11 10 8 9 7 8 6 6 5 5 5 5 4 4 4 4 5 5 6 6 6 6
19 18 20 16 10 17 20 14 20 18 6 5 2 6 6 7 11 8 6 7 6 16 18 16 12 13 11 10 9 10 9 9 7 7 6 6 4 4 5 4 4 5 5 6 6 6 5 5 6
4 25 10 17 15 13 17 18 29 25 11 7 6 0 5 4 4 9 12 13 12 11 11 16 14 11 11 13 10 10 8 7 8 8 8 7 6 6 5 5 5 6 6 6 6 7 7 7 8
13 22 18 21 23 9 18 25 25 30 22 10 13 11 1 2 2 4 5 8 11 12 14 12 11 11 14 11 10 10 9 9 9 8 8 9 8 8 6 6 6 6 6 7 7 8 8 8 9
14 18 22 20 20 12 17 13 10 23 23 20 17 16 10 5 2 3 3 5 9 12 13 12 11 12 11 10 10 10 8 9 9 8 8 8 9 8 8 7 7 8 8 8 9 9 10 10 10
19 18 23 17 20 22 16 13 2 13 24 32 26 19 16 11 8 2 2 2 5 9 12 12 11 11 12 10 10 8 9 9 9 9 9 8 8 9 8 8 9 9 9 10 10 11 10 11 11
19 22 22 26 12 17 21 19 17 11 17 27 29 26 23 18 10 6 3 2 3 7 9 12 13 12 11 10 10 10 11 10 9 8 8 7 7 8 8 9 10 9 11 11 11 11 11 11 9
19 24 14 5 10 15 19 19 18 20 24 24 23 32 31 26 17 11 8 5 4 6 9 10 11 12 12 10 8 7 6 8 5 4 4 5 6 6 7 8 8 8 8 10 11 11 10 8 7
21 23 18 15 10 16 10 18 20 20 22 21 22 23 29 29 25 20 14 10 6 7 7 7 8 8 8 7 4 1 0 1 3 4 4 1 1 1 3 3 4 5 5 8 7 7 8 10 7
15 15 17 13 17 10 17 9 22 21 21 26 26 19 21 24 26 22 18 14 9 8 5 5 6 6 6 6 7 9 9 8 1 1 2 2 1 1 1 2 3 5 5 7 8 7 6 9 12
12 9 11 10 15 6 10 8 17 11 21 23 23 19 19 17 14 17 13 14 12 11 10 9 8 7 6 6 6 6 5 2 3 3 3 2 2 1 2 2 3 4 4 6 7 7 7 9 11
11 13 9 5 10 13 18 14 12 13 13 16 17 18 21 19 18 14 15 12 13 14 11 10 12 9 7 6 5 5 4 4 4 3 3 2 1 0 2 3 3 4 4 5 6 6 6 8 10
19 21 8 7 7 9 0 14 16 1 4 4 3 12 16 20 21 19 18 19 16 16 16 13 13 12 9 8 6 4 4 2 2 2 2 2 3 2 2 5 5 5 6 7 7 8 7 8 9
18 22 6 6 11 15 6 7 8 5 4 3 5 9 10 8 13 18 21 18 15 14 15 14 14 14 10 8 7 5 4 2 2 2 0 1 2 3 4 5 5 6 7 7 8 7 7 4 5
12 6 4 2 5 1 8 6 12 5 9 7 8 4 6 9 9 10 11 14 16 15 15 16 15 13 12 10 8 7 5 3 2 2 2 1 1 3 4 5 6 6 6 7 7 7 6 3 2
6 11 5 1 5 6 5 6 4 9 8 7 6 4 3 4 6 6 8 12 15 15 15 15 14 12 12 9 8 7 6 4 3 1 1 1 1 2 3 4 5 5 6 6 5 5 4 5 2
6 6 5 3 2 4 3 4 9 10 8 9 10 10 10 6 3 4 6 10 13 15 16 16 14 12 10 9 8 7 6 5 3 2 1 2 2 3 3 4 5 5 5 5 5 3 3 1 1
6 14 15 10 6 4 5 3 4 11 4 4 5 6 8 7 3 3 6 11 14 16 16 16 15 13 10 9 8 7 6 5 3 1 1 2 2 3 4 4 4 4 4 5 4 2 2 2 2
Wind_Direction
279 247 260 234 216 229 225 206 161 201 186 83 305 295 270 30 178 91 143 134 137 143 144 156 150 142 137 125 120 120 116 108 108 108 111 107 96 86 80 83 86 87 88 91 88 86 83 82 82
294 243 220 230 231 213 224 180 193 191 94 334 220 253 264 90 52 127 132 145 148 142 148 153 147 140 132 130 130 129 120 117 115 118 120 114 106 92 84 88 91 91 90 94 90 85 81 77 78
258 238 212 218 226 223 219 156 196 178 173 228 197 268 8 75 83 144 129 145 147 139 155 136 146 137 134 138 140 137 128 119 123 126 126 120 116 99 91 90 90 91 92 90 90 83 76 71 78
236 201 251 227 215 221 244 161 116 203 141 161 304 171 96 30 126 129 144 149 149 148 140 135 136 134 135 138 138 135 130 121 124 125 127 128 122 106 98 97 94 93 94 93 89 80 73 73 75
239 222 218 217 220 211 166 124 188 183 180 161 273 162 92 65 110 134 156 151 149 150 125 139 135 133 134 131 127 130 131 130 133 132 131 132 122 114 103 101 99 98 102 103 101 91 84 82 86
213 216 214 211 211 183 164 142 136 193 151 172 197 304 85 62 111 143 155 156 147 136 133 141 132 133 134 131 129 130 133 138 142 141 136 134 123 117 102 101 100 99 98 99 98 90 81 78 78
215 209 221 212 201 152 185 196 128 108 167 138 145 252 96 101 117 155 160 154 154 123 148 145 149 142 135 133 132 131 130 132 171 155 143 137 131 124 109 111 111 111 106 100 93 88 80 73 73
227 235 230 222 195 172 170 167 96 30 97 125 301 191 147 121 92 289 162 159 159 139 137 153 154 162 158 147 135 135 133 111 119 139 136 130 125 112 119 133 116 114 115 111 105 96 85 73 70
247 235 221 199 176 163 171 176 107 36 135 79 26 28 67 112 122 91 97 142 174 134 149 152 163 160 163 152 137 136 142 127 129 127 137 157 154 168 166 105 120 124 129 139 146 139 147 192 193
201 229 207 193 190 157 172 187 112 147 154 129 73 89 69 140 156 162 165 186 155 162 173 156 169 147 178 158 157 152 147 173 182 175 171 201 156 112 73 123 136 151 163 181 190 197 213 240 216
201 222 234 236 218 218 158 157 106 76 131 41 28 24 96 156 162 179 191 176 173 170 174 161 171 162 164 162 184 162 172 174 174 181 179 185 173 160 202 174 190 206 200 214 191 198 222 227 278
238 210 232 285 172 186 178 172 130 42 63 45 15 24 139 155 148 187 178 182 180 174 182 167 178 169 161 190 202 170 178 179 177 183 185 177 187 181 203 212 204 218 215 233 235 247 243 233 242
212 204 205 233 228 176 169 179 123 194 197 304 348 47 150 163 158 149 221 221 182 174 185 214 176 183 166 175 219 182 186 192 183 182 195 196 191 191 195 211 218 227 237 242 240 243 253 247 256
206 218 196 215 250 211 195 186 168 213 221 221 299 37 84 187 187 176 196 240 212 198 188 197 206 193 180 189 187 206 201 183 190 185 196 198 212 201 200 212 223 230 227 236 241 250 247 260 254
210 205 202 184 188 215 196 195 198 192 199 220 242 233 78 81 184 198 189 206 213 213 198 188 201 194 191 199 202 212 200 198 191 198 189 199 196 206 206 226 214 216 225 236 245 255 258 265 267
189 191 202 211 218 151 199 214 206 210 202 236 258 274 240 103 146 164 194 199 198 197 197 196 183 195 202 187 201 221 196 200 207 203 196 200 204 206 211 221 228 233 227 233 244 249 256 259 265
195 193 205 190 200 181 203 228 245 198 237 250 250 260 246 218 232 148 164 201 202 201 193 185 186 194 199 206 200 209 212 211 212 210 213 207 215 216 223 232 237 241 240 243 245 254 257 266 271
181 203 197 195 200 211 210 230 159 191 207 235 249 252 244 223 212 208 198 199 202 206 191 188 192 205 200 205 216 215 215 231 233 229 225 227 231 225 232 245 249 254 251 250 255 254 262 270 277
195 206 189 219 168 192 223 222 205 191 222 231 238 245 253 221 212 184 193 199 205 198 199 202 194 201 209 208 210 220 219 219 230 237 249 248 249 256 247 251 258 251 256 264 271 272 277 268 270
236 197 188 186 157 197 219 225 223 227 225 227 233 230 236 242 226 205 207 212 227 216 202 200 199 196 205 207 217 241 234 235 236 205 223 246 254 255 265 264 273 288 289 270 268 278 271 275 282
229 188 172 182 179 212 250 236 230 229 228 239 237 234 228 230 233 224 205 208 198 213 202 204 194 196 196 211 181 144 81 8 227 216 190 164 315 341 348 335 320 314 300 285 296 304 275 259 260
182 194 181 173 175 205 206 259 209 217 222 230 231 233 232 227 227 241 197 199 192 199 163 184 172 174 175 187 206 221 230 238 134 71 86 149 46 54 7 322 300 290 268 250 258 261 268 251 257
196 144 170 156 211 270 186 250 263 186 223 232 232 231 235 234 229 238 185 197 174 168 179 170 167 166 164 177 198 194 206 136 125 164 186 198 142 63 30 351 320 298 299 291 292 281 258 253 265
150 152 125 207 237 243 244 221 252 212 236 233 238 231 225 232 234 227 215 208 177 157 172 171 165 165 164 161 163 181 180 180 180 188 225 222 220 156 34 348 328 309 300 298 295 280 283 279 267
154 160 151 185 207 231 308 225 245 308 215 229 242 251 234 223 230 231 215 201 187 174 173 174 172 165 161 151 146 140 144 164 189 192 238 255 242 244 339 336 331 324 321 309 300 290 275 277 270
188 182 170 193 200 206 144 233 235 280 247 291 271 262 244 274 249 228 211 195 200 183 179 175 171 160 155 148 147 128 121 119 113 107 103 284 327 341 346 332 327 326 322 317 309 300 283 324 310
176 201 358 348 34 186 181 223 265 244 212 241 250 251 234 225 237 227 235 206 201 192 184 182 180 160 156 154 150 133 118 114 108 91 71 46 8 349 335 327 328 328 325 326 321 307 309 296 307
213 170 189 284 175 217 165 230 137 142 115 97 80 47 2 292 250 242 217 214 200 184 178 181 176 163 158 152 137 133 116 102 100 79 63 39 348 335 329 326 324 327 324 327 325 311 313 286 330
172 189 227 278 291 293 189 145 107 123 106 95 80 56 31 1 294 231 202 186 189 181 172 171 166 156 149 147 137 134 130 126 114 93 39 1 336 340 335 326 321 322 326 328 313 329 320 271 294
272 242 215 222 209 239 322 311 162 167 124 139 108 45 13 331 301 192 175 171 171 171 175 169 160 155 155 154 153 146 143 146 151 127 24 357 338 336 337 329 322 324 332 328 330 340 22 83 91